Dewpoint
44 42 43 42 42 42 44 44 44 44 43 43 43 42 42 42 42 42 43 43 43 43 42 42 41 41 39 32 28 30 36 35 33 33 41 45 40 36 36 42 42 41 38 38 37 35 33
42 44 41 42 41 44 44 44 43 42 44 42 42 42 42 42 42 43 43 43 43 43 42 39 39 39 33 27 27 27 30 30 30 33 40 47 39 35 32 38 40 38 37 34 35 34 33
43 41 42 42 42 42 42 42 43 44 41 42 43 42 42 43 43 43 43 43 42 41 38 38 37 33 28 25 28 35 37 35 31 31 30 37 45 35 32 33 38 35 32 34 33 32 31
42 41 42 41 41 41 42 42 41 41 42 43 42 42 43 43 44 43 41 42 38 37 36 34 32 28 25 34 33 34 37 36 33 29 30 35 40 45 33 31 31 34 31 30 30 31 30
41 42 41 41 42 42 41 41 42 41 41 43 42 43 43 43 44 42 41 40 36 34 34 27 23 17 21 33 24 24 35 35 35 32 28 30 33 38 41 26 25 24 28 26 28 29 29
40 41 41 41 41 42 42 42 41 41 41 41 42 43 44 44 44 42 40 34 32 28 24 16 13 13 16 17 21 22 35 35 34 28 25 29 34 34 40 27 23 22 20 23 24 27 26
42 41 41 41 41 41 41 41 41 41 41 42 43 44 45 45 44 40 33 25 26 18 26 23 20 13 13 13 15 24 27 26 35 29 25 23 29 28 34 33 22 22 20 18 20 24 24
40 41 40 42 40 41 41 41 41 41 41 42 44 45 45 44 41 39 30 26 28 32 26 25 17 7 10 13 9 11 18 25 27 28 25 22 27 27 28 38 28 20 18 17 17 19 21
41 40 42 41 41 40 40 40 41 41 41 42 45 45 45 42 39 29 27 25 31 32 27 19 9 6 11 9 9 10 22 24 24 21 25 24 18 25 25 34 34 28 19 16 15 17 18
40 41 41 39 39 40 40 40 40 41 44 44 45 45 45 40 27 27 19 27 31 33 20 4 8 9 11 7 6 8 21 22 26 26 24 25 21 21 25 29 33 30 26 19 16 16 15
39 40 40 40 40 40 40 40 40 42 44 44 44 44 41 37 28 19 25 29 34 34 -0 4 7 12 11 5 5 7 21 17 18 20 21 23 22 18 25 30 32 31 27 24 20 14 13
40 39 39 39 39 40 40 40 41 43 43 44 44 44 39 27 22 24 27 30 34 11 -6 4 9 9 5 3 4 6 8 18 20 15 18 20 29 21 18 22 28 35 26 21 19 15 12
40 41 41 41 41 38 39 40 42 42 43 44 44 42 33 25 23 27 27 24 2 2 5 6 11 11 5 2 4 4 5 16 16 13 10 15 17 32 28 18 24 33 29 22 20 20 18
42 41 41 41 39 40 39 40 40 41 43 43 43 39 26 23 28 26 25 5 2 6 10 14 12 9 1 4 6 5 4 7 17 15 13 13 10 25 32 28 20 23 30 20 14 14 12
42 41 40 40 40 39 40 40 40 42 42 43 41 31 22 26 26 24 12 7 7 13 17 17 15 4 6 8 9 9 4 9 14 21 13 12 10 13 28 31 32 23 24 24 10 10 7
42 41 41 41 40 41 40 40 39 42 42 43 34 28 21 27 27 17 13 9 12 14 15 14 8 11 13 10 10 10 5 12 12 15 19 16 10 14 25 33 33 31 23 15 13 9 8
40 41 41 41 41 41 40 39 39 41 42 41 31 24 25 27 26 16 13 16 14 16 14 15 16 16 17 10 12 9 10 11 16 16 17 16 18 13 20 24 26 30 25 18 12 9 7
41 40 40 42 41 41 41 39 40 40 40 35 31 16 27 28 14 15 15 17 15 14 15 15 15 14 15 17 14 13 11 17 19 24 17 14 17 13 16 19 26 32 26 24 14 10 12
41 40 39 41 42 42 41 40 40 39 39 36 31 27 24 22 17 17 17 13 15 15 15 17 15 16 22 18 16 12 18 20 21 23 19 18 17 12 19 24 25 23 22 25 25 15 11
41 40 41 39 41 42 41 41 40 40 39 36 32 21 12 16 19 20 19 15 14 15 17 17 17 18 18 14 12 16 15 19 22 23 21 22 18 16 10 15 19 14 18 23 25 24 16
41 40 39 42 41 41 41 41 41 40 39 34 31 21 24 16 18 22 19 17 15 15 17 16 16 15 17 16 15 11 15 18 16 21 21 21 15 15 17 18 13 13 14 15 17 16 23
42 41 40 39 39 41 41 41 41 40 39 32 26 26 26 23 17 16 16 16 16 18 17 14 14 15 16 16 15 17 17 17 14 20 18 20 15 18 18 15 11 8 10 9 8 8 15
44 42 41 39 40 41 41 40 38 39 39 33 32 35 31 20 13 13 14 18 20 20 17 16 16 16 15 15 18 20 18 21 23 23 17 17 18 15 11 17 19 6 9 10 8 7 9
44 44 43 42 39 41 41 38 38 40 39 38 34 33 29 17 14 14 18 19 19 18 17 17 16 15 16 19 20 15 17 21 25 22 13 14 16 18 15 18 6 8 11 14 9 8 9
45 45 45 44 40 40 41 39 37 39 38 37 37 33 30 20 18 17 18 21 19 17 16 17 17 17 20 21 13 10 5 7 10 9 9 13 16 15 14 8 10 12 9 7 7 8 8
44 45 45 44 43 40 42 40 38 37 38 38 36 35 34 26 17 21 21 22 19 17 16 14 16 20 21 18 13 10 5 7 7 8 8 6 13 15 16 9 5 6 9 14 13 6 8
44 45 45 44 44 41 42 41 39 38 36 37 36 35 33 28 25 25 23 25 24 20 18 16 18 16 16 15 12 8 7 10 6 8 8 6 6 8 10 10 7 8 9 10 7 5 8
43 45 46 45 44 43 42 41 38 38 38 37 37 37 33 30 29 28 25 26 26 23 19 18 17 14 16 13 15 12 11 11 13 10 8 6 5 5 6 6 5 8 5 4 6 7 8
44 45 46 46 45 43 43 41 38 38 37 36 35 36 36 33 29 31 31 29 29 28 26 24 20 18 20 18 18 17 14 15 14 8 8 8 5 6 7 7 7 10 8 7 8 7 7
Wind_Speed
22 22 22 23 22 22 22 24 25 26 29 30 31 32 33 35 36 35 34 34 34 32 31 33 32 29 24 22 33 40 45 39 28 22 37 43 46 43 51 42 39 47 37 44 39 33 33
21 20 21 21 22 24 24 25 26 28 30 32 33 34 35 36 36 34 33 33 33 30 31 31 28 23 24 36 20 20 28 30 23 12 16 36 39 45 42 46 47 34 37 36 40 42 35
19 21 21 22 24 26 27 28 29 30 32 33 34 36 37 37 35 34 33 33 31 31 31 28 25 19 23 35 23 23 22 35 23 20 24 24 30 38 44 47 42 37 30 39 40 37 38
20 21 23 24 26 26 27 28 30 31 33 34 35 37 37 37 35 33 33 32 34 32 28 26 23 19 15 3 4 6 16 20 18 25 26 24 15 30 42 37 32 41 37 40 41 39 34
21 23 24 25 26 27 28 28 29 32 34 34 36 38 39 39 35 32 31 28 33 26 26 27 8 19 11 3 20 31 6 9 18 25 19 18 25 22 38 36 39 32 47 52 36 38 36
22 23 24 26 26 27 28 28 30 33 34 35 36 38 38 38 34 31 24 28 23 25 20 8 6 13 7 27 27 21 7 15 12 13 16 21 12 20 28 40 44 46 50 47 46 38 34
23 24 25 25 27 27 29 30 32 33 34 36 38 39 40 37 35 28 21 19 24 9 18 11 20 13 21 26 25 13 10 17 17 14 19 24 19 32 30 41 41 42 41 44 40 35 38
23 25 25 26 28 29 31 32 33 34 36 38 38 38 39 36 33 19 16 13 13 7 17 14 14 16 21 27 26 20 25 11 9 16 19 23 34 32 32 26 35 42 43 46 33 31 34
23 24 26 27 30 32 33 34 35 36 38 38 38 40 38 35 29 16 15 14 15 4 6 8 14 13 27 27 13 22 20 18 19 22 20 27 30 32 37 32 37 44 45 35 39 30 27
22 24 26 29 31 32 34 35 36 38 37 37 38 40 37 30 12 18 18 23 14 4 5 18 21 11 30 28 12 22 16 13 8 9 17 19 31 29 32 38 35 38 40 33 26 25 31
25 25 27 28 30 32 34 36 37 38 38 39 38 38 34 20 15 21 25 21 2 5 7 18 17 14 26 24 20 27 10 17 10 21 8 9 24 37 31 31 30 26 25 32 32 28 20
25 26 27 29 30 33 34 36 37 37 39 40 41 38 28 15 17 25 23 8 4 4 8 15 24 30 27 22 27 25 16 17 4 17 12 19 17 24 39 25 30 11 28 26 25 25 27
26 27 27 29 29 31 33 35 35 37 38 39 42 34 15 15 22 25 19 6 4 16 20 18 31 30 25 28 31 30 22 24 23 17 22 19 20 9 8 36 27 24 28 17 16 14 18
26 26 27 27 29 30 32 34 36 38 38 40 40 25 14 18 22 21 15 4 10 18 20 29 24 29 19 28 28 28 21 18 18 22 19 11 7 13 6 15 32 33 17 13 11 17 32
24 26 27 27 28 29 30 33 36 37 39 41 33 10 18 21 21 17 11 13 8 15 17 18 27 22 24 31 25 28 19 14 13 16 15 9 6 16 9 5 10 34 28 20 21 27 13
25 25 26 27 28 29 30 32 35 35 39 40 19 9 16 22 20 12 10 8 9 17 22 19 22 14 30 29 29 27 16 9 10 18 15 5 13 6 7 1 12 9 40 37 31 23 21
24 25 26 27 28 29 30 33 34 35 36 33 11 8 14 25 11 11 11 8 10 19 21 14 20 22 21 31 32 22 19 13 23 22 19 12 6 10 8 10 7 10 25 30 30 22 30
24 25 26 26 27 27 29 32 33 34 35 18 9 7 13 17 14 14 12 12 17 16 21 12 13 18 21 32 16 14 20 13 22 22 12 6 6 12 9 14 11 6 11 35 22 30 26
24 24 25 25 27 27 28 29 31 31 32 18 12 5 4 12 13 20 16 8 16 23 19 11 10 15 18 19 9 14 19 20 21 18 8 10 7 11 4 8 13 10 14 8 25 23 26
24 25 24 26 26 25 27 28 29 29 32 14 8 9 6 7 9 18 18 12 20 16 12 18 15 16 27 21 21 9 24 11 13 14 15 8 4 4 7 6 6 8 19 13 4 15 19
25 24 25 24 26 26 27 27 27 27 30 11 7 6 4 14 17 16 14 10 21 21 10 16 7 26 26 12 17 17 24 20 12 14 8 9 4 12 12 16 24 24 18 20 12 12 2
25 26 26 26 26 27 27 27 27 27 26 7 10 7 6 18 15 15 13 13 18 25 18 13 17 30 23 14 18 28 26 16 10 17 13 8 6 12 18 22 27 22 29 13 18 18 8
25 26 27 28 26 26 25 25 24 23 18 4 6 4 5 12 15 14 13 19 21 21 10 12 23 24 25 22 30 25 19 15 14 16 21 15 10 6 6 12 10 12 24 15 14 23 13
26 26 27 26 27 25 24 23 22 20 16 8 11 9 6 16 18 17 19 20 19 18 18 19 18 18 20 32 24 10 11 13 10 8 14 17 16 2 2 12 4 8 16 8 9 14 18
26 26 26 26 25 25 23 24 23 21 19 12 10 8 5 13 20 17 20 18 18 16 14 16 16 21 21 18 9 7 9 5 7 14 19 12 9 6 4 11 12 3 12 11 8 5 20
27 27 26 26 25 25 23 24 23 21 18 8 10 10 6 9 3 23 18 12 15 15 13 7 16 16 13 11 5 6 6 9 7 17 17 14 12 8 5 5 4 4 22 16 8 7 24
27 27 27 26 26 26 23 24 24 22 20 13 8 9 6 13 18 7 16 12 6 11 13 15 20 9 9 12 7 7 5 6 8 12 12 11 8 15 13 4 4 16 23 12 2 10 27
27 27 27 26 27 28 25 25 25 24 21 18 11 11 9 8 18 17 10 10 10 11 8 15 12 9 8 9 5 6 4 6 4 3 3 6 8 7 7 5 1 25 6 7 11 18 22
28 27 27 25 26 28 26 26 26 25 22 21 17 9 10 10 9 16 15 17 15 13 8 4 7 9 5 6 6 6 11 3 4 5 2 2 4 3 4 3 3 4 10 7 11 18 21
Wind_Direction
26 23 18 17 11 11 2 2 358 353 350 351 349 347 346 341 338 332 328 322 317 315 312 309 306 304 305 276 263 275 288 292 292 279 235 222 217 217 219 220 213 217 219 222 233 234 234
27 16 17 14 13 5 4 0 357 356 353 350 347 346 345 340 335 331 325 319 315 313 309 304 304 306 290 278 287 302 295 288 277 277 289 229 222 221 224 222 220 217 224 234 222 234 238
17 19 13 11 7 7 4 3 360 354 353 351 346 345 342 339 335 331 326 320 316 312 309 308 306 308 293 278 307 327 303 284 267 285 285 271 245 228 224 222 223 225 226 221 239 227 232
17 15 13 9 8 5 2 1 358 354 353 352 347 344 340 338 335 331 328 320 315 315 308 310 306 287 277 299 310 326 317 310 290 269 248 254 261 248 230 231 230 231 227 235 217 229 231
13 15 10 7 3 2 2 359 355 354 352 350 346 342 339 337 335 333 330 323 316 313 306 312 298 316 298 174 317 329 241 270 284 289 274 253 243 238 226 219 222 218 225 227 224 213 220
16 11 9 5 2 0 358 357 355 355 352 348 344 339 337 334 335 336 336 324 326 304 346 304 8 338 338 328 329 325 315 291 275 280 266 218 220 232 208 201 208 212 219 225 221 217 215
9 11 5 2 0 359 357 356 355 352 349 346 343 341 339 335 332 338 337 345 3 345 349 315 309 316 325 330 328 349 304 319 272 246 244 223 218 230 222 208 207 214 225 224 226 213 223
9 8 1 358 359 357 357 355 351 349 349 346 342 339 337 335 329 334 342 19 13 271 307 317 301 338 344 334 329 349 353 332 330 268 221 226 216 222 227 215 218 222 221 231 225 225 215
7 6 0 358 358 357 354 352 349 348 347 344 343 340 339 336 319 342 334 359 340 301 263 299 359 347 341 339 7 353 353 330 291 276 260 222 224 220 227 215 209 223 224 226 227 212 223
9 6 0 359 358 354 352 349 349 347 343 343 342 341 338 336 318 341 345 341 334 180 267 8 356 355 341 353 2 353 1 325 308 289 242 226 234 219 216 231 214 213 223 231 243 197 212
7 8 5 1 356 353 351 349 348 345 344 343 341 340 336 333 321 337 335 332 12 177 6 348 339 333 332 4 341 359 22 335 308 305 279 229 202 221 226 220 223 217 220 212 241 238 209
11 8 5 1 357 354 350 349 346 346 344 342 340 338 335 345 331 341 332 341 191 300 354 322 343 340 338 356 353 351 7 13 317 320 326 262 271 218 224 225 208 227 217 196 222 237 225
7 5 3 359 358 353 351 348 344 346 343 342 339 337 344 339 338 331 326 264 337 18 343 342 332 328 326 355 352 351 355 34 27 350 345 317 257 283 228 215 205 204 194 168 193 215 222
7 4 2 356 355 354 352 350 347 344 343 342 338 329 349 360 341 336 320 28 37 351 347 325 331 320 346 351 349 347 359 14 32 3 333 336 219 191 223 226 202 202 204 173 143 182 219
5 1 1 357 355 354 353 350 348 345 342 342 335 338 4 350 341 329 7 36 10 347 335 321 318 336 338 345 348 344 4 18 30 26 4 318 287 343 228 240 210 206 205 214 200 214 230
359 1 360 356 356 353 353 351 348 344 343 341 334 317 0 341 332 350 35 30 353 349 334 332 333 328 331 342 347 342 354 341 9 2 352 310 301 342 323 199 256 244 200 203 225 221 211
358 356 356 356 356 353 351 351 349 348 345 338 343 329 1 335 297 22 24 350 333 333 346 325 318 324 339 340 336 340 350 340 360 334 329 305 256 305 303 201 239 180 203 213 220 224 223
354 353 353 353 353 352 351 348 348 350 349 351 341 341 356 328 22 23 8 335 327 333 341 333 314 334 339 330 324 348 349 349 343 328 328 336 298 301 297 310 326 276 207 207 206 204 226
349 348 348 349 348 351 349 350 348 351 353 340 339 291 327 343 16 358 357 351 345 337 340 337 319 338 335 335 334 340 341 334 343 5 349 347 352 327 13 130 22 26 356 313 224 220 212
345 344 344 348 347 346 350 350 349 352 348 343 337 341 356 330 0 359 337 342 347 360 339 340 313 331 343 339 343 308 343 344 343 354 350 336 305 317 328 346 10 4 14 3 282 231 229
341 342 342 343 342 348 350 349 350 352 349 338 359 0 12 322 341 342 332 322 341 351 347 336 317 338 341 318 334 341 333 332 346 4 21 6 301 341 294 106 66 46 34 28 52 16 224
339 337 340 340 345 348 351 349 352 356 349 344 350 338 321 304 318 327 331 340 331 334 330 322 326 331 330 323 341 318 319 330 2 332 15 355 332 337 93 107 90 61 29 29 34 10 13
335 338 340 343 343 342 348 350 351 353 1 329 334 276 282 304 320 323 342 335 322 327 320 321 328 326 323 336 321 304 288 285 279 308 346 349 339 335 156 186 293 14 5 59 68 34 358
332 336 339 339 339 338 342 343 345 343 349 329 324 302 290 301 318 321 322 332 328 319 305 310 327 330 314 319 311 264 258 254 272 300 16 340 344 268 282 216 59 130 30 40 67 55 24
329 330 336 335 336 335 335 339 339 339 339 331 322 318 274 292 307 304 333 322 320 320 315 305 315 322 329 313 330 333 359 4 322 11 11 15 338 318 345 69 126 167 12 329 324 59 20
326 328 330 331 334 331 332 333 334 333 329 320 310 305 271 297 262 332 316 310 322 331 325 352 336 334 327 310 333 337 4 332 327 338 1 356 349 30 349 58 56 37 328 326 200 232 9
318 321 323 327 329 329 329 328 328 328 329 321 291 295 279 272 281 289 310 310 309 314 302 315 341 335 345 338 332 356 333 345 331 344 340 348 350 26 13 54 97 355 335 318 261 327 339
312 314 317 319 326 324 326 328 328 327 323 325 279 276 265 258 282 294 277 266 293 289 288 325 329 1 323 346 327 354 304 359 301 61 7 352 347 6 342 358 12 360 25 42 317 319 325
310 309 309 315 323 322 323 326 328 327 320 319 298 269 263 252 271 302 281 279 271 257 279 285 303 319 318 303 346 319 296 262 350 325 48 283 24 320 12 16 351 25 79 19 345 328 328